User: anonymous   Login
Location: NJAA Observatory
(40.6819°N, 74.8979°W)
Time: 09:08:49
(UTC-05:00)
Language:

Cosmos 2237 Rocket - Orbit

View from above orbital plane
View from above orbital plane
View from above satellite
View from above satellite

Ground track
Ground track

The orbit data is extracted from the following two-line orbital elements,

1 22566U 93016B   15064.49590133 -.00000027  00000-0  10522-4 0  9994
2 22566 071.0087 018.9064 0011784 314.2668 045.7487 14.14886034133208
Epoch (UTC): 05 March 2015 11:54:05
Eccentricity: 0.0011784
inclination: 71.0087°
perigee height: 834 km
apogee height: 851 km
right ascension of ascending node: 18.9064°
argument of perigee: 314.2668°
revolutions per day: 14.14886034
mean anomaly at epoch: 45.7487°
orbit number at epoch: 13320

The dashed part of the orbit path shows where the satellite is in the earth's shadow,  

DLR